Terminal Aerodrome Forecast
Issued by NWS Green Bay, WI

Home | Current Version | Previous Version | Text Only | Print | Product List | Glossary Off
Versions: 1 2 3 4 5 6 7 8 9 10 11 12 13 14 15 16 17 18 19 20 21 22 23 24 25 26 27 28 29 30 31 32 33 34

000
FTUS43 KGRB 291100
TAFGRB
TAF
KGRB 291120Z 2912/3012 30007KT P6SM BKN100
     FM291600 31008KT P6SM VCSH SCT040 BKN090
      TEMPO 2918/2922 5SM -TSRA BKN035CB
     FM300600 35005KT P6SM SCT012 SCT070=

USA.gov is the U.S. government's official web portal to all federal, state and local government web resources and services.